Home   Weather   Jena   Past weeks

Flag for Germany Past Weather in Jena, Thuringia, Germany — Yesterday and Last 2 Weeks

Now
46 °F

Sunny.


Feels Like: 41 °F
Forecast: 35 / 48 °F
Wind: 10 mph from Northwest

Location: Erfurt-Bindersleben

Current Time: Apr 25, 2017 at 8:32:10 pm

Latest Report: Apr 25, 2017 at 7:50 pm


Visibility: 10 mi

Pressure: 29.74 "Hg

Humidity: 53%

Dew Point: 30 °F

Location of JenaLocation

Past Weather in Jena — Graph

°F

Jena Temperature Yesterday

Maximum temperature yesterday: 57 °F (at 3:20 pm)
Minimum temperature yesterday: 30 °F (at 3:20 am)
Average temperature yesterday: 45 °F

High & Low Weather Summary for the Past Weeks

 TemperatureHumidityPressure
High57 °F (Apr 24, 3:20 pm)100% (Apr 15, 5:20 pm)30.57 "Hg (Apr 15, 5:20 pm)
Low27 °F (Apr 20, 5:50 am)39% (Apr 24, 5:20 pm)29.62 "Hg (Apr 25, 4:20 am)
Average42 °F75%30.10 "Hg
* Reported Apr 10 7:20 pm — Apr 25 7:20 pm, Jena, Weather by CustomWeather, © 2017

Note: Actual official high and low records may vary slightly from our data, if they occured in-between our weather recording intervals... More about our weather records

Advertising

Jena Weather History for the Previous 24 Hours

Scroll right to see more
 ConditionsComfort  
Time TempWeatherWind HumidityBarometerVisibility
7:20 pm
Tue, Apr 25
46 °FPassing clouds.10 mph50%29.74 "HgN/A
6:50 pm48 °FSunny.9 mph46%29.74 "Hg10 mi
6:20 pm48 °FBroken clouds.10 mph50%29.74 "HgN/A
5:50 pm48 °FMore clouds than sun.10 mph50%29.74 "HgN/A
5:20 pm50 °FMore clouds than sun.12 mph50%29.74 "HgN/A
4:50 pm48 °FMore clouds than sun.14 mph54%29.74 "HgN/A
4:20 pm48 °FMore clouds than sun.14 mph54%29.74 "HgN/A
3:50 pm48 °FMore clouds than sun.16 mph58%29.74 "HgN/A
3:20 pm48 °FPartly sunny.18 mph58%29.74 "HgN/A
2:50 pm46 °FPartly sunny.15 mph62%29.71 "HgN/A
2:20 pm46 °FBroken clouds.15 mph62%29.71 "HgN/A
1:50 pm48 °FBroken clouds.14 mph66%29.71 "HgN/A
1:20 pm46 °FBroken clouds.17 mph71%29.71 "HgN/A
12:50 pm45 °FBroken clouds.14 mph76%29.71 "HgN/A
12:20 pm43 °FLight rain. Partly sunny.13 mph87%29.71 "HgN/A
11:50 am41 °FDrizzle. Broken clouds.13 mph93%29.71 "HgN/A
11:20 am41 °FLight rain. Broken clouds.16 mph87%29.71 "HgN/A
10:50 am41 °FLight rain. Partly sunny.13 mph93%29.68 "HgN/A
10:20 am41 °FLight rain. Broken clouds.12 mph93%29.68 "HgN/A
9:50 am43 °FLight rain. Broken clouds.16 mph81%29.65 "HgN/A
9:20 am46 °FPartly sunny.17 mph76%29.65 "HgN/A
8:50 am48 °FBroken clouds.15 mph66%29.62 "HgN/A
8:20 am48 °FBroken clouds.15 mph66%29.62 "HgN/A
7:50 am46 °FPartly sunny.13 mph71%29.62 "HgN/A
7:20 am45 °FSunny.10 mph71%29.62 "Hg10 mi
6:50 am41 °FSunny.9 mph76%29.62 "Hg10 mi
6:20 am39 °FSunny.8 mph81%29.62 "Hg10 mi
5:50 am39 °FClear.8 mph75%29.62 "Hg10 mi
4:20 am41 °FClear.9 mph76%29.62 "Hg10 mi
3:50 am41 °FClear.8 mph76%29.65 "Hg10 mi
3:20 am39 °FClear.8 mph81%29.65 "Hg10 mi
2:50 am41 °FClear.8 mph76%29.65 "Hg10 mi
2:20 am41 °FClear.7 mph76%29.68 "Hg10 mi
1:50 am43 °FClear.8 mph76%29.68 "Hg10 mi
1:20 am43 °FClear.8 mph76%29.71 "Hg10 mi
12:50 am45 °FClear.8 mph71%29.71 "Hg10 mi
12:20 am45 °FClear.8 mph71%29.74 "Hg10 mi
11:50 pm
Mon, Apr 24
45 °FClear.7 mph71%29.74 "Hg10 mi
11:20 pm46 °FClear.8 mph66%29.74 "Hg10 mi
10:50 pm46 °FClear.8 mph62%29.77 "Hg10 mi
10:20 pm48 °FClear.6 mph58%29.77 "Hg10 mi
9:50 pm46 °FClear.6 mph62%29.77 "Hg10 mi
9:20 pm48 °FClear.7 mph58%29.80 "Hg10 mi
8:50 pm48 °FClear.8 mph62%29.80 "Hg10 mi
8:20 pm50 °FSunny.9 mph58%29.80 "Hg10 mi
Weather by CustomWeather, © 2017

See weather overviewHow to use our weather pages